Weather History for KF05 - March, 2013

Change the Weather History Date:

Friday, March 15, 2013

  Actual Average (KLTS) Record (KLTS)
Temperature  
Mean Temperature 68 °F -  
Max Temperature 89 °F 61 °F 83 °F (2013)
Min Temperature 46 °F 38 °F 26 °F (1999)
Cooling Degree Days 2    
Growing Degree Days 18 (Base 50)    
Moisture  
Dew Point 37 °F    
Average Humidity 36    
Maximum Humidity 67    
Minimum Humidity 13    
Precipitation  
Precipitation 0.00 in - - ()
Sea Level Pressure  
Sea Level Pressure 29.95 in    
Wind  
Wind Speed 11 mph (SSW)    
Max Wind Speed 18 mph    
Max Gust Speed 29 mph    
Visibility 10 miles    
Events      
Averages and records for this station are not official NWS values.
T = Trace of Precipitation, MM = Missing Value Source: NWS Daily Summary

Daily Weather History Graph

Daily Weather History Graph

Search for Another Location

Airport or City:

Trip Planner

Search our weather history database for the weather conditions in past years. The results will help you decide how hot, cold, wet, or windy it might be!

Date:

Astronomy

Mar. 15, 2013 Rise Set
Actual Time 7:47 AM CDT 7:45 PM CDT
Civil Twilight 7:22 AM CDT 8:10 PM CDT
Nautical Twilight 6:53 AM CDT 8:39 PM CDT
Astronomical Twilight 6:23 AM CDT 9:08 PM CDT
Moon 9:50 AM CDT (3/15) 11:47 PM CDT (3/15)
Length of Visible Light 12h 47m
Length of Day
11h 57m
Waxing Crescent, 15% of the Moon is Illuminated
Mar 15
Waxing Crescent
Mar 19
First Quarter
Mar 27
Full
Apr 2
Last Quarter
Apr 10
New

Hourly Weather History & Observations

Time (CDT) Temp. Dew Point Humidity Pressure Visibility Wind Dir Wind Speed Gust Speed Precip Events Conditions
12:15 AM 58.3 °F 40.5 °F 52% 30.11 in 10.0 mi SSE 8.1 mph - N/A   Clear
12:35 AM 56.8 °F 40.5 °F 54% 30.11 in 10.0 mi South 8.1 mph - N/A   Clear
12:55 AM 56.5 °F 40.6 °F 55% 30.11 in 10.0 mi South 6.9 mph - N/A   Clear
1:15 AM 55.9 °F 40.6 °F 56% 30.10 in 10.0 mi South 9.2 mph - N/A   Clear
1:35 AM 55.8 °F 41.0 °F 58% 30.09 in 10.0 mi South 10.4 mph - N/A   Clear
1:55 AM 54.3 °F 41.0 °F 61% 30.09 in 10.0 mi South 10.4 mph - N/A   Clear
2:15 AM 53.6 °F 41.0 °F 62% 30.08 in 10.0 mi South 11.5 mph - N/A   Clear
2:35 AM 54.3 °F 40.6 °F 60% 30.07 in 10.0 mi South 11.5 mph - N/A   Clear
2:55 AM 56.8 °F 40.1 °F 54% 30.07 in 10.0 mi South 11.5 mph - N/A   Clear
3:15 AM 57.6 °F 39.0 °F 50% 30.06 in 10.0 mi South 11.5 mph - N/A   Clear
3:35 AM 59.7 °F 37.6 °F 44% 30.06 in 10.0 mi South 10.4 mph - N/A   Clear
4:15 AM - - N/A% 30.05 in 10.0 mi SW 10.4 mph - N/A   Unknown
4:35 AM 57.6 °F 36.5 °F 45% 30.05 in 10.0 mi SW 8.1 mph - N/A   Clear
4:55 AM 55.4 °F 36.9 °F 50% 30.05 in 10.0 mi SW 10.4 mph - N/A   Clear
5:15 AM 53.8 °F 36.7 °F 52% 30.05 in 10.0 mi SW 8.1 mph - N/A   Clear
5:35 AM 51.6 °F 36.7 °F 57% 30.05 in 10.0 mi SSW 8.1 mph - N/A   Clear
5:55 AM 50.7 °F 36.5 °F 58% 30.05 in 10.0 mi SSW 10.4 mph - N/A   Clear
6:15 AM 50.9 °F 36.7 °F 58% 30.06 in 10.0 mi South 10.4 mph - N/A   Clear
6:35 AM 51.4 °F 36.7 °F 57% 30.05 in 10.0 mi SSW 10.4 mph - N/A   Clear
6:55 AM 52.3 °F 36.5 °F 55% 30.04 in 10.0 mi WSW 8.1 mph - N/A   Clear
7:15 AM 50.0 °F 36.5 °F 60% 30.04 in 10.0 mi West 9.2 mph - N/A   Clear
7:35 AM 47.8 °F 36.3 °F 64% 30.04 in 10.0 mi West 8.1 mph - N/A   Clear
7:55 AM 46.9 °F 36.3 °F 67% 30.03 in 10.0 mi WSW 9.2 mph - N/A   Clear
8:15 AM 47.8 °F 36.5 °F 65% 30.03 in 10.0 mi SSW 10.4 mph - N/A   Clear
8:35 AM 50.5 °F 37.2 °F 60% 30.04 in 10.0 mi South 10.4 mph - N/A   Clear
8:55 AM 54.1 °F 38.5 °F 55% 30.04 in 10.0 mi SSW 10.4 mph - N/A   Clear
9:15 AM 57.4 °F 38.7 °F 50% 30.04 in 10.0 mi SSW 11.5 mph - N/A   Clear
9:35 AM 59.7 °F 38.3 °F 45% 30.04 in 10.0 mi SSW 11.5 mph - N/A   Clear
9:55 AM 61.9 °F 38.5 °F 42% 30.04 in 10.0 mi SSW 12.7 mph - N/A   Clear
10:55 AM 67.6 °F 39.7 °F 36% 30.03 in 10.0 mi SW 16.1 mph 19.6 mph N/A   Clear
11:15 AM 70.2 °F 38.8 °F 32% 30.02 in 10.0 mi WSW 16.1 mph 21.9 mph N/A   Clear
11:35 AM 72.0 °F 39.0 °F 30% 30.02 in 10.0 mi WSW 17.3 mph - N/A   Clear
11:55 AM 73.8 °F 39.2 °F 29% 30.01 in 10.0 mi SW 15.0 mph - N/A   Clear
12:15 PM 76.5 °F 38.8 °F 26% 30.00 in 10.0 mi SW 17.3 mph 21.9 mph N/A   Clear
12:35 PM 78.3 °F 38.5 °F 24% 30.00 in 10.0 mi SW 17.3 mph - N/A   Clear
12:55 PM 79.0 °F 39.0 °F 24% 29.99 in 10.0 mi SSW 15.0 mph 21.9 mph N/A   Clear
1:35 PM 80.6 °F 38.5 °F 22% 29.97 in 10.0 mi South 15.0 mph 21.9 mph N/A   Clear
1:55 PM 81.5 °F 38.5 °F 22% 29.96 in 10.0 mi South 17.3 mph 21.9 mph N/A   Clear
2:15 PM 82.0 °F 37.9 °F 21% 29.94 in 10.0 mi SSW 18.4 mph 24.2 mph N/A   Clear
2:35 PM 83.5 °F 36.0 °F 18% 29.93 in 10.0 mi SW 18.4 mph 21.9 mph N/A   Clear
2:55 PM 84.2 °F 35.6 °F 18% 29.91 in 10.0 mi SSW 15.0 mph - N/A   Clear
3:15 PM 85.1 °F 35.1 °F 17% 29.90 in 10.0 mi SSW 15.0 mph - N/A   Clear
3:35 PM 86.4 °F 34.2 °F 15% 29.88 in 10.0 mi SSW 18.4 mph - N/A   Clear
3:55 PM 87.1 °F 33.8 °F 15% 29.87 in 10.0 mi SSW 15.0 mph 19.6 mph N/A   Clear
4:15 PM 87.8 °F 33.1 °F 14% 29.86 in 10.0 mi South 16.1 mph 20.7 mph N/A   Clear
4:35 PM 88.7 °F 33.1 °F 14% 29.84 in 10.0 mi SW 16.1 mph 28.8 mph N/A   Clear
4:55 PM 88.9 °F 32.9 °F 14% 29.84 in 10.0 mi SSW 16.1 mph 20.7 mph N/A   Clear
5:15 PM 89.1 °F 32.4 °F 13% 29.83 in 10.0 mi SSW 16.1 mph 21.9 mph N/A   Clear
5:35 PM 89.4 °F 32.0 °F 13% 29.82 in 10.0 mi SSW 17.3 mph 23.0 mph N/A   Clear
5:55 PM 88.3 °F 32.0 °F 13% 29.81 in 10.0 mi South 15.0 mph - N/A   Clear
6:15 PM 87.3 °F 33.1 °F 14% 29.80 in 10.0 mi SSW 11.5 mph - N/A   Clear
6:35 PM 86.2 °F 34.9 °F 16% 29.80 in 10.0 mi South 10.4 mph - N/A   Clear
6:55 PM 84.0 °F 36.3 °F 18% 29.79 in 10.0 mi South 8.1 mph - N/A   Clear
7:15 PM 81.1 °F 36.7 °F 20% 29.79 in 10.0 mi South 9.2 mph - N/A   Clear
7:35 PM 79.3 °F 35.8 °F 21% 29.79 in 10.0 mi SSE 9.2 mph - N/A   Clear
7:55 PM 76.6 °F 36.9 °F 24% 29.79 in 10.0 mi SSE 10.4 mph - N/A   Clear
8:15 PM 75.0 °F 37.2 °F 25% 29.78 in 10.0 mi SSE 11.5 mph - N/A   Clear
8:35 PM 74.7 °F 37.2 °F 26% 29.78 in 10.0 mi SSE 12.7 mph - N/A   Clear
9:15 PM 74.1 °F 36.7 °F 26% 29.78 in 10.0 mi South 13.8 mph - N/A   Clear
9:35 PM 73.6 °F 36.5 °F 26% 29.78 in 10.0 mi SSE 12.7 mph - N/A   Clear
9:55 PM 72.5 °F 36.5 °F 27% 29.78 in 10.0 mi SSE 15.0 mph - N/A   Clear
10:15 PM 71.8 °F 36.7 °F 28% 29.78 in 10.0 mi SSE 13.8 mph - N/A   Clear
10:35 PM 71.2 °F 37.0 °F 29% 29.77 in 10.0 mi South 16.1 mph - N/A   Clear
10:55 PM 71.6 °F 37.4 °F 29% 29.78 in 10.0 mi South 15.0 mph - N/A   Clear
11:15 PM 71.2 °F 37.9 °F 30% 29.78 in 10.0 mi South 15.0 mph - N/A   Clear
11:35 PM 70.2 °F 38.3 °F 31% 29.77 in 10.0 mi South 16.1 mph - N/A   Clear
11:55 PM 69.8 °F 38.3 °F 32% 29.77 in 10.0 mi South 15.0 mph - N/A   Clear